User: anonymous   Login
Location: Unspecified
(0.0000°N, 0.0000°E)
Time: 23:50:54
(UTC+00:00)
Language:

STARLINK-11166 [DTC] - Orbit

View from above orbital plane
View from above orbital plane
View from above satellite
View from above satellite

Ground track
Ground track

The orbit is defined by the following mean orbital elements,

1 60062U          26145.48707889 +.00000000 +00000-0 +17007-4 0 00005
2 60062  53.1571 172.5888 0001004  67.2279 292.8845 15.69709154    00
Epoch (UTC): 25 May 2026 11:41:23
Eccentricity: 0.0001004
inclination: 53.1571°
perigee height: 359 km
apogee height: 360 km
right ascension of ascending node: 172.5888°
argument of perigee: 67.2279°
revolutions per day: 15.69709154
mean anomaly at epoch: 292.8845°

The dashed part of the orbit path shows where the satellite is in the earth's shadow,  

DLR